sat.trackr.live / text

‹ back to catalog

STARLINK-5350

NORAD 56419 · 2023-061AX

PAYLOAD ACTIVE UNKNOWN

§ Identity

Operator
Country
US
Launch date
2023-05-04
Launch site
AFETR
Launch vehicle
Mass (kg)
RCS (m²)

Purposes: comms

External: N2YO · Heavens-Above · Gunter

§ Orbital elements

Epoch: 2026-09-20T03:38:50.644320Z

Period
94.27 min
Inclination
43.0020°
Eccentricity
0.0001407
Mean motion
15.27576802 rev/d
Perigee alt
482.1 km
Apogee alt
484.0 km
Semi-major
6,861.2 km
B*
2.0630e-5
RAAN
168.9355°
Arg perigee
264.2285°
Mean anomaly
95.8406°
Rev number
18,661

§ Raw data

STARLINK-53501 56419U 23061AX  26263.15197505  .00000306  00000+0  20630-4 0  99922 56419  43.0020 168.9355 0001407 264.2285  95.8406 15.27576802186611

JSON: /api/v1/satellites/56419 · /tle

For live sub-satellite position, see the globe view (requires WebGL).

§ Visibility from observer

Set your observer location to see the next 7 days of passes ≥ 10°. The values pass through the URL so the page stays shareable.

No JS? Fill the form by hand. The geolocation button needs JavaScript.